Lapse_Rate
7.1 6.3 7.4 6.7 5.2 5.0 5.3 6.3 6.4 5.8 5.5 5.2 4.0 3.5 3.3 3.2 3.1 3.9 4.7 5.1 5.2 5.0 5.7 6.0 5.8 4.8 5.2 4.3 4.0 3.8 5.1 5.4 3.5 1.1 -0.5 -1.3 -1.7 -2.6 -3.8 -4.7 -5.0 -4.9 -4.6
7.7 6.3 6.4 6.4 6.0 5.5 5.4 5.6 5.7 5.9 5.3 5.2 4.8 3.7 3.5 3.5 3.2 3.9 4.8 5.2 5.2 5.6 5.7 5.1 5.3 5.5 4.9 4.4 3.6 3.5 3.4 4.2 2.1 -0.4 -1.1 -2.0 -2.1 -2.7 -3.8 -4.0 -4.5 -4.6 -4.7
6.4 5.7 5.3 6.6 6.2 5.4 5.8 5.4 6.0 6.1 5.7 5.8 5.1 4.0 3.6 3.7 3.2 4.1 4.6 5.2 5.4 5.1 5.4 5.9 6.0 5.8 6.2 5.7 3.9 3.3 3.1 3.6 2.2 -0.8 -2.6 -2.9 -3.9 -3.7 -3.7 -3.7 -4.3 -4.5 -4.2
5.7 5.5 5.1 6.1 6.4 5.7 5.7 5.4 5.5 5.8 5.6 6.3 5.4 4.8 4.3 3.9 3.1 3.7 4.3 4.5 5.3 5.3 5.2 5.4 6.0 6.2 6.4 5.4 4.8 4.1 2.9 2.4 0.9 -1.3 -3.0 -3.8 -4.2 -4.3 -3.3 -4.1 -4.1 -3.7 -3.0
5.0 5.0 5.3 4.5 6.2 5.9 5.4 5.6 5.5 5.8 5.8 6.6 6.0 6.0 5.4 4.3 4.0 3.7 4.0 4.2 4.5 4.8 4.3 4.2 3.6 4.6 3.0 4.7 4.3 3.2 2.4 1.0 0.0 -1.6 -3.0 -3.5 -4.1 -4.8 -4.5 -5.0 -3.2 -2.7 -1.7
6.1 4.4 5.0 4.1 5.3 5.8 5.3 5.1 5.5 5.8 5.4 5.7 5.6 4.6 3.0 1.8 -2.0 0.4 3.1 4.4 4.3 4.4 4.3 0.3 -0.3 -1.2 -2.4 -2.8 -3.9 -4.1 -0.6 0.2 -1.4 -1.5 -3.4 -3.2 -5.0 -5.1 -4.7 -3.8 -1.6 -0.5 0.3
6.5 4.2 4.1 3.5 4.4 6.0 5.6 5.3 5.4 5.5 3.8 2.2 1.3 0.9 -0.6 -1.9 -2.9 -2.4 -2.4 -1.9 -2.2 -2.1 -1.1 -2.0 -3.4 -3.7 -4.2 -5.4 -5.5 -5.5 -5.6 -4.8 -5.0 -3.2 -3.1 -4.0 -5.3 -5.8 -4.6 -2.3 -0.5 0.6 0.7
6.6 4.9 2.9 2.4 3.2 5.1 5.8 5.6 4.3 2.7 1.3 -0.2 -0.9 -1.7 -2.8 -3.9 -3.8 -3.7 -3.7 -4.2 -4.7 -4.9 -4.6 -4.4 -4.3 -5.0 -5.4 -5.4 -6.0 -6.3 -6.6 -6.2 -5.9 -5.5 -5.1 -6.3 -5.7 -3.9 -0.9 0.3 1.1 0.6 1.0
4.9 3.6 1.9 1.3 1.1 2.1 3.9 3.5 1.6 0.2 -1.0 -2.0 -2.2 -2.6 -3.7 -4.2 -4.2 -3.5 -3.7 -4.4 -5.1 -4.9 -4.5 -4.3 -4.8 -4.9 -5.1 -4.3 -5.7 -6.3 -6.3 -6.2 -5.8 -5.5 -5.4 -4.3 -2.2 -0.8 0.6 0.9 1.0 1.6 1.8
3.1 1.8 1.1 0.8 0.7 1.3 3.7 1.6 -0.1 -1.3 -2.4 -2.9 -3.4 -3.4 -4.0 -4.0 -3.1 -3.3 -3.5 -4.5 -5.8 -5.5 -4.5 -4.4 -4.4 -5.2 -4.9 -4.7 -5.2 -6.2 -6.6 -5.9 -5.7 -4.4 -2.6 -1.5 -0.5 0.3 1.2 2.3 2.7 2.9 3.4
2.4 1.7 0.7 0.2 0.6 1.4 3.1 -0.5 -2.0 -3.0 -3.4 -3.8 -4.1 -4.3 -3.9 -3.7 -3.4 -2.8 -2.9 -4.2 -5.1 -5.0 -5.1 -4.5 -4.3 -4.5 -5.3 -5.6 -4.7 -5.9 -6.3 -5.3 -3.4 -1.7 -0.5 0.2 1.2 2.1 2.5 3.1 2.9 1.3 1.7
2.9 1.7 0.4 0.4 0.4 2.8 1.1 -1.5 -3.0 -3.3 -3.8 -4.1 -4.5 -4.8 -4.5 -4.4 -3.7 -3.4 -3.5 -4.1 -4.5 -5.4 -5.4 -4.3 -3.9 -3.2 -3.4 -3.6 -4.0 -3.4 -2.7 -1.0 -0.1 0.1 0.5 2.0 2.6 3.4 3.2 1.7 1.8 1.7 1.9
2.8 2.2 1.1 0.9 0.5 0.1 0.3 -2.4 -3.2 -3.2 -3.6 -4.0 -4.1 -4.4 -4.0 -3.5 -3.5 -2.8 -3.6 -4.4 -4.7 -5.4 -4.4 -2.7 -1.7 -1.7 -2.2 -2.0 -1.2 -0.0 0.3 0.3 0.7 1.4 2.4 3.3 3.7 2.9 3.2 2.8 2.7 2.6 3.0
3.3 2.7 2.5 2.2 0.4 -0.2 0.1 2.2 -2.9 -3.3 -3.2 -4.1 -4.2 -4.4 -4.3 -3.8 -3.7 -3.3 -3.6 -3.2 -2.3 -3.0 -1.6 -1.8 -1.6 -1.2 -0.7 0.1 1.7 3.0 2.9 3.2 2.7 2.2 2.9 2.6 3.1 2.8 2.5 3.0 3.0 2.5 1.5
4.0 3.1 3.3 2.3 1.5 0.4 -0.4 0.7 1.4 -3.7 -2.5 -4.4 -4.9 -5.3 -5.6 -4.0 -2.7 -2.7 -3.2 -3.5 -3.6 -3.4 -1.4 0.9 0.9 1.0 1.6 2.7 3.7 4.1 3.8 4.1 3.3 2.7 2.8 3.3 3.5 3.7 3.5 2.5 2.8 3.4 3.9
4.3 3.5 3.3 3.1 2.2 1.7 0.5 0.1 1.8 -0.0 -1.7 -1.7 -3.1 -3.7 -2.4 -2.2 -0.9 -1.3 -2.1 -1.9 -0.7 0.8 0.8 1.1 1.4 1.8 2.4 2.9 2.9 3.5 3.8 2.7 2.9 3.2 3.0 3.1 3.2 3.0 2.7 3.1 3.3 2.4 2.4
4.1 4.2 3.6 3.3 3.0 2.9 3.1 1.1 2.4 4.3 1.8 1.1 1.4 1.6 1.0 1.1 2.2 2.2 2.1 1.9 2.0 2.4 0.6 1.5 2.0 2.3 2.1 2.3 3.3 3.2 3.1 3.7 3.4 2.9 2.6 2.7 2.5 3.0 3.4 4.1 3.3 3.0 3.5
4.1 4.2 4.4 4.0 4.0 4.0 4.4 4.7 3.3 4.2 4.5 4.5 4.4 3.4 3.5 4.2 3.9 4.0 3.8 2.6 2.6 1.8 1.2 1.5 2.1 3.0 3.7 2.4 2.5 2.8 2.9 2.9 2.8 2.5 2.3 2.4 2.3 2.7 2.6 3.3 3.1 1.7 2.7
3.9 4.5 4.9 4.8 4.1 4.5 5.1 5.2 5.6 5.5 6.4 6.7 6.5 6.5 7.0 7.0 6.6 5.7 4.8 2.8 3.1 3.7 4.0 3.8 4.9 4.8 3.4 3.2 2.6 2.5 2.2 2.3 2.2 2.2 2.3 1.4 0.7 2.5 2.0 2.4 2.1 2.5 2.5
4.7 4.7 4.9 5.5 4.8 4.9 5.2 5.3 5.7 6.1 6.3 6.5 6.6 6.6 6.1 5.5 4.6 4.1 3.6 3.2 3.4 4.2 4.2 4.5 4.5 4.0 3.1 1.5 1.1 2.0 2.4 2.3 2.2 2.4 1.2 0.3 0.4 1.4 1.4 1.9 1.9 2.5 3.8
5.6 5.4 4.9 4.8 5.3 6.0 6.2 6.4 6.6 6.8 7.0 6.8 6.6 5.8 4.6 3.7 4.1 4.0 4.3 4.5 5.1 4.9 4.1 4.1 3.5 2.7 3.1 3.5 3.9 3.5 2.6 2.1 2.2 1.6 2.1 1.0 -0.2 1.0 2.2 2.7 2.7 3.2 3.9
6.2 5.9 5.4 5.3 5.5 5.0 5.1 5.4 5.4 5.6 5.9 5.8 5.8 4.9 4.4 4.3 4.1 4.3 4.7 4.7 4.5 4.1 3.9 3.4 3.9 4.4 4.1 3.9 3.5 2.9 2.1 1.7 1.4 1.9 -0.0 0.5 1.7 2.0 2.2 2.7 2.0 2.0 3.0
6.3 6.0 5.7 5.4 4.9 4.7 4.6 4.6 4.4 4.5 4.9 4.9 5.1 4.8 4.2 4.1 3.6 4.3 4.5 4.2 3.7 3.6 3.6 2.6 1.8 2.4 3.4 3.7 3.6 3.0 1.8 1.0 0.6 1.5 0.3 0.6 1.4 1.5 1.2 1.9 1.8 1.8 1.4
6.5 6.1 5.7 5.2 4.7 4.7 4.8 4.9 4.9 4.9 4.8 4.8 4.5 4.4 4.3 4.1 3.4 3.0 2.6 2.3 2.0 1.7 1.9 2.0 1.6 1.7 2.0 1.6 0.1 -1.2 -0.9 0.6 0.6 0.5 2.0 2.2 0.6 1.4 0.1 0.9 1.5 1.4 1.3
6.3 5.6 5.2 5.3 5.5 5.5 5.5 5.3 5.0 4.7 4.5 3.8 3.0 3.1 3.4 3.0 2.4 2.2 2.1 1.6 1.0 0.5 -0.1 -0.4 -0.4 -0.8 -1.6 -1.8 -1.6 -2.0 -1.8 -0.9 -0.7 -0.1 1.4 2.7 2.7 1.4 0.4 1.1 1.0 1.5 1.4
5.6 5.4 5.4 5.5 5.6 5.5 5.1 4.8 4.7 4.6 4.2 4.3 3.7 3.2 2.9 2.4 2.0 1.6 1.4 1.1 0.5 0.2 0.0 0.0 0.1 -0.2 -1.0 -2.1 -2.6 -2.6 -2.5 -2.4 -2.3 -2.0 -0.5 1.5 2.7 0.9 0.4 0.2 0.5 0.6 2.0
Wind_Speed
7 10 7 7 7 7 5 6 9 11 12 12 12 11 11 10 10 9 9 10 13 17 12 16 14 8 4 4 4 6 7 9 9 3 3 8 6 10 14 18 17 18 18
10 11 11 7 7 8 9 6 6 8 12 12 12 12 12 12 11 11 11 11 10 14 14 11 10 7 10 6 5 6 6 9 8 11 5 3 4 8 13 13 14 14 14
10 11 12 9 8 9 9 7 7 9 9 11 12 12 13 12 12 12 12 13 13 13 15 19 17 14 15 6 4 6 5 5 10 8 5 2 3 3 6 10 13 13 11
10 11 11 11 9 9 8 7 6 6 7 10 12 13 13 12 13 13 13 13 13 12 13 14 17 16 14 10 9 7 8 8 11 9 5 3 3 3 3 8 5 4 4
10 11 13 12 10 7 8 9 7 6 6 6 6 8 11 13 10 13 13 13 13 13 11 11 7 10 14 13 11 10 10 6 9 6 4 3 3 5 6 3 4 5 3
11 11 12 14 12 8 7 8 9 7 6 6 4 5 5 3 1 12 14 13 15 16 13 6 8 16 14 20 19 16 8 6 4 4 3 3 4 5 6 6 8 4 3
14 12 12 15 13 8 9 9 9 7 8 8 6 6 5 4 3 10 13 6 6 5 8 12 10 7 18 16 23 26 24 20 9 6 7 5 7 4 7 7 4 4 3
14 13 12 13 15 12 9 11 8 8 9 7 7 7 7 6 12 19 19 12 10 9 9 8 15 11 10 17 18 18 16 13 11 10 12 11 12 12 9 7 8 7 5
13 13 13 13 16 12 12 12 10 10 9 7 6 8 10 8 11 16 19 13 13 12 10 9 12 14 20 26 20 21 19 17 32 36 34 31 26 20 14 8 5 4 3
15 15 14 14 15 14 10 12 8 10 10 9 9 8 12 10 10 11 14 11 14 11 13 14 20 17 18 19 20 20 19 14 17 17 14 23 21 19 15 10 3 4 2
15 15 14 14 14 13 5 10 12 13 12 11 12 9 10 10 9 14 13 11 12 11 11 10 11 24 24 24 24 15 19 17 17 13 12 10 10 11 13 13 12 5 3
14 13 12 12 10 4 10 10 13 14 14 13 13 11 8 10 14 16 19 19 20 15 13 11 15 28 30 31 24 31 28 17 11 11 10 9 8 7 8 12 13 13 15
13 11 11 10 6 7 3 12 11 11 12 11 10 10 10 9 11 25 26 26 25 15 13 23 32 33 34 25 28 26 16 11 10 10 10 9 7 8 12 11 11 13 10
10 10 9 6 7 9 7 5 11 10 10 11 11 11 10 10 10 11 13 16 29 23 23 15 16 19 20 18 14 12 8 8 9 10 10 8 8 6 5 4 2 1 3
8 8 8 6 7 10 13 8 4 8 6 11 11 12 13 11 10 17 18 13 13 17 17 12 12 12 11 11 10 10 9 9 9 8 8 8 7 6 5 1 2 2 4
7 6 6 6 6 6 10 13 26 23 25 23 20 16 12 24 28 30 33 34 29 24 14 12 11 11 11 9 9 9 8 10 8 8 7 6 5 4 3 3 3 3 2
8 7 6 7 8 7 7 12 14 17 32 32 31 29 29 30 32 32 31 30 28 21 12 11 10 9 10 10 9 9 9 7 8 7 6 5 3 4 4 5 3 3 3
9 13 7 8 8 8 7 8 10 11 14 15 23 24 30 30 30 28 25 22 13 13 11 11 10 10 9 10 9 8 8 7 7 6 5 4 3 4 3 5 3 2 2
9 7 8 9 10 11 9 10 10 12 12 13 14 18 19 27 25 24 19 11 11 10 10 10 9 10 9 9 9 8 8 7 6 6 4 3 3 4 3 4 2 2 3
9 14 11 9 10 10 9 10 10 10 11 10 10 10 10 13 12 11 10 10 10 9 10 10 9 9 8 9 8 8 7 7 6 6 4 3 3 3 3 3 2 2 2
6 8 12 10 9 8 9 9 9 8 9 10 10 11 16 12 11 11 10 9 9 9 9 9 9 9 8 7 6 6 7 6 5 5 4 3 3 3 3 2 2 2 2
6 8 8 9 8 9 9 9 10 10 11 11 11 12 16 10 10 10 10 10 9 10 11 10 8 7 8 8 8 7 7 5 5 4 3 3 2 3 2 2 3 3 3
7 8 9 9 9 11 10 9 10 10 10 10 9 10 10 10 10 10 9 9 8 11 15 15 13 12 15 15 14 13 8 6 8 13 4 3 3 3 2 2 3 3 3
7 9 9 8 8 8 9 9 9 12 10 10 10 9 9 9 10 11 9 8 13 15 16 15 16 14 15 16 18 18 18 15 13 12 10 6 3 3 3 3 3 2 2
7 8 8 8 8 8 8 9 9 9 9 9 9 9 9 9 9 9 8 12 13 14 15 16 15 18 21 22 19 17 15 14 11 7 6 4 5 2 2 1 1 2 3
7 8 7 7 7 7 8 8 8 8 9 8 8 8 8 8 8 8 7 10 11 13 15 14 15 17 18 17 15 13 11 10 8 6 5 5 4 3 3 4 5 2 4
Wind_Direction
335 318 266 249 239 244 250 227 190 165 170 172 170 179 183 186 184 187 191 183 186 189 187 189 192 215 243 146 134 136 154 157 128 96 92 111 96 113 105 95 92 91 91
336 316 293 237 235 241 242 219 207 177 167 174 170 179 184 188 185 191 193 186 181 185 192 183 188 208 232 160 124 118 144 139 133 131 130 114 84 115 123 115 110 100 92
351 321 306 272 235 237 231 203 184 176 165 167 175 182 186 188 188 194 196 193 191 187 186 188 191 201 221 200 144 126 121 131 135 142 126 106 105 129 105 108 104 105 104
332 323 310 291 253 238 226 201 191 198 168 181 181 186 188 186 188 191 198 195 197 194 188 185 187 194 204 172 158 157 141 127 120 118 95 110 111 126 125 129 113 101 91
317 315 321 309 273 239 220 195 170 193 175 191 169 188 187 189 190 191 196 196 198 196 193 178 167 186 205 177 170 166 150 138 137 126 115 124 149 156 165 125 113 116 88
313 310 313 311 299 237 222 175 165 172 155 142 133 113 102 93 20 192 191 197 200 201 196 127 111 108 96 98 91 79 113 138 143 126 107 145 129 119 126 129 132 134 134
311 313 320 321 307 248 207 173 167 163 111 103 98 102 88 58 85 113 101 83 88 105 139 136 104 109 115 105 89 81 68 63 74 123 143 134 135 136 130 131 129 129 123
315 312 322 321 309 296 218 180 138 123 120 110 99 94 94 71 100 103 99 94 85 71 83 101 123 120 117 112 97 83 74 59 70 85 96 103 108 120 121 129 125 107 110
323 321 318 314 306 308 301 152 130 121 109 100 103 106 107 96 103 114 108 100 91 79 70 76 97 104 115 113 101 98 91 87 84 92 95 100 104 102 99 108 128 139 127
319 315 311 307 299 299 280 145 122 115 113 108 97 94 103 103 101 109 112 114 101 95 81 76 81 96 104 112 113 116 106 109 104 97 94 89 92 94 83 66 92 104 82
315 313 309 311 292 272 195 138 125 117 113 107 101 90 88 92 94 104 111 114 116 109 98 91 89 94 96 96 100 105 112 118 111 108 104 101 96 89 83 82 64 47 82
315 315 321 313 305 207 152 132 125 125 120 118 110 97 83 83 91 97 103 106 113 110 107 105 104 102 99 98 97 108 110 108 109 106 103 101 102 99 92 86 82 73 68
322 330 328 320 355 18 96 141 124 131 132 129 121 114 107 100 97 100 101 102 101 102 106 112 110 104 101 96 105 109 108 107 109 107 104 98 95 98 105 97 102 117 118
324 340 339 326 34 44 31 336 137 138 138 132 128 122 117 113 111 109 106 104 103 105 107 103 101 99 98 104 103 98 100 100 103 105 105 105 104 91 81 76 109 111 111
337 357 357 4 37 73 64 29 13 83 122 137 134 134 134 126 127 124 120 115 114 112 113 105 102 100 99 97 96 93 91 90 95 99 103 107 104 104 99 81 64 52 81
356 15 25 29 31 49 79 77 61 72 85 92 104 114 111 115 121 120 119 119 117 119 109 105 101 102 100 101 99 99 94 94 99 101 98 91 93 104 94 70 54 63 73
9 29 35 50 52 53 61 92 93 77 90 93 96 101 104 118 119 119 120 119 117 112 102 106 105 103 105 104 105 101 103 96 92 93 96 102 102 81 79 83 53 53 14
19 35 46 54 61 65 65 73 93 94 96 93 93 105 110 114 115 116 112 103 98 92 98 103 106 108 111 109 111 112 107 100 91 84 77 69 68 78 60 85 63 75 340
30 33 49 60 63 62 67 75 79 89 94 97 102 91 95 98 95 94 93 91 96 97 100 104 109 111 113 112 110 106 101 100 100 97 86 69 64 82 64 59 85 40 43
44 46 50 62 70 72 74 79 81 83 83 92 91 90 90 87 86 84 81 84 87 96 102 103 106 105 99 95 98 104 107 104 101 95 79 61 63 78 87 81 58 48 35
56 57 61 64 65 71 74 77 83 89 86 83 84 80 87 91 90 86 85 85 89 88 94 99 99 97 101 114 125 109 90 88 87 78 95 76 50 70 47 76 55 47 41
63 62 66 69 74 75 75 77 76 76 76 81 80 78 84 85 87 87 88 89 91 91 92 95 97 95 94 95 98 97 93 89 83 106 86 68 48 78 33 62 59 27 41
70 78 77 77 77 78 77 76 80 80 80 80 80 82 80 82 85 88 88 85 84 86 88 85 85 82 82 88 87 88 87 85 65 60 60 55 59 61 12 42 44 36 40
71 72 75 79 79 81 84 86 84 82 86 87 85 85 88 88 87 84 84 84 82 79 79 83 79 80 84 82 78 75 77 83 94 75 56 29 42 57 31 31 24 30 5
79 83 83 85 88 90 92 89 87 86 87 87 89 88 87 87 88 88 86 89 91 87 80 77 77 76 79 83 86 87 80 74 80 75 41 39 82 117 227 251 37 3 351
80 83 86 90 90 88 87 88 88 90 92 93 94 94 96 96 95 96 96 97 94 91 92 93 99 99 94 88 90 89 84 82 74 55 71 3 350 27 37 37 22 9 319